• In Hungary
  • List of Countries
  • For 7 days
  • Water Temperature
  • Satellite Maps
  • Weather Map
  • News
  • Weather Widgets
  • user-avatar
    Login

    Hourly Weather Eminhyur

    Today, 19 July, Thursday

    Time Temperature Precipitation Wind Pressure Humidity
    00:00 +25°C° 0 mm 1 mps 736 mmHg 53%
    01:00 +25°C° 0 mm 1 mps 736 mmHg 53%
    02:00 +25°C° 0 mm 1 mps 736 mmHg 52%
    03:00 +25°C° 0 mm 2 mps 736 mmHg 51%
    04:00 +25°C° 0 mm 2 mps 736 mmHg 50%
    05:00 +26°C° 0 mm 2 mps 736 mmHg 49%
    06:00 +27°C° 0 mm 2 mps 736 mmHg 48%
    07:00 +29°C° 0 mm 2 mps 735 mmHg 46%
    08:00 +31°C° 0 mm 2 mps 735 mmHg 44%
    09:00 +34°C° 0 mm 2 mps 735 mmHg 42%
    10:00 +35°C° 0 mm 3 mps 735 mmHg 41%
    11:00 +36°C° 0 mm 3 mps 734 mmHg 41%
    12:00 +37°C° 0 mm 4 mps 734 mmHg 41%
    13:00 +37°C° 0 mm 4 mps 734 mmHg 42%
    14:00 +37°C° 0 mm 3 mps 733 mmHg 44%
    15:00 +37°C° 0 mm 3 mps 733 mmHg 45%
    16:00 +36°C° 0 mm 3 mps 733 mmHg 50%
    17:00 +35°C° 0 mm 3 mps 733 mmHg 55%
    18:00 +32°C° 0 mm 2 mps 733 mmHg 61%
    19:00 +31°C° 0 mm 2 mps 734 mmHg 64%
    20:00 +29°C° 0 mm 2 mps 734 mmHg 67%
    21:00 +28°C° 0 mm 2 mps 734 mmHg 71%
    22:00 +28°C° 0 mm 2 mps 734 mmHg 69%
    23:00 +28°C° 0 mm 2 mps 735 mmHg 68%

    Tomorrow, 20 July, Friday

    Time Temperature Precipitation Wind Pressure Humidity
    00:00 +27°C° 0 mm 3 mps 735 mmHg 66%
    01:00 +27°C° 0 mm 3 mps 735 mmHg 65%
    02:00 +27°C° 0 mm 3 mps 735 mmHg 63%
    03:00 +27°C° 0 mm 3 mps 735 mmHg 62%
    04:00 +28°C° 0 mm 3 mps 735 mmHg 59%
    05:00 +29°C° 0 mm 3 mps 735 mmHg 57%
    06:00 +30°C° 0 mm 3 mps 735 mmHg 55%
    07:00 +31°C° 0 mm 3 mps 735 mmHg 51%
    08:00 +34°C° 0 mm 4 mps 735 mmHg 48%
    09:00 +35°C° 0 mm 4 mps 735 mmHg 45%
    10:00 +36°C° 0 mm 5 mps 735 mmHg 43%
    11:00 +37°C° 0 mm 5 mps 735 mmHg 42%
    12:00 +39°C° 0 mm 5 mps 735 mmHg 41%
    13:00 +37°C° 0 mm 5 mps 735 mmHg 43%
    14:00 +37°C° 0 mm 5 mps 735 mmHg 45%
    15:00 +36°C° 0 mm 5 mps 735 mmHg 47%
    16:00 +35°C° 0 mm 4 mps 735 mmHg 52%
    17:00 +34°C° 0 mm 4 mps 735 mmHg 56%
    18:00 +31°C° 0 mm 3 mps 734 mmHg 61%
    19:00 +30°C° 0 mm 3 mps 735 mmHg 65%
    20:00 +29°C° 0 mm 3 mps 735 mmHg 70%
    21:00 +27°C° 0 mm 3 mps 735 mmHg 74%
    22:00 +27°C° 0 mm 3 mps 735 mmHg 73%
    23:00 +27°C° 0 mm 3 mps 735 mmHg 72%

    Day after tomorrow, 21 July, Saturday

    Time Temperature Precipitation Wind Pressure Humidity
    00:00 +27°C° 0 mm 3 mps 735 mmHg 71%
    01:00 +27°C° 0 mm 3 mps 735 mmHg 71%
    02:00 +27°C° 0 mm 3 mps 736 mmHg 70%
    03:00 +27°C° 0 mm 3 mps 736 mmHg 69%
    04:00 +28°C° 0 mm 3 mps 736 mmHg 65%
    05:00 +29°C° 0 mm 4 mps 736 mmHg 61%
    06:00 +30°C° 0 mm 4 mps 736 mmHg 57%
    07:00 +32°C° 0 mm 4 mps 736 mmHg 52%
    08:00 +33°C° 0 mm 5 mps 737 mmHg 47%
    09:00 +35°C° 0 mm 5 mps 737 mmHg 43%
    10:00 +35°C° 0 mm 5 mps 737 mmHg 42%
    11:00 +36°C° 0 mm 6 mps 737 mmHg 41%
    12:00 +38°C° 0 mm 6 mps 737 mmHg 40%
    13:00 +36°C° 0 mm 5 mps 737 mmHg 41%
    14:00 +36°C° 0 mm 5 mps 736 mmHg 42%
    15:00 +36°C° 0 mm 5 mps 736 mmHg 42%
    16:00 +35°C° 0.1 mm 4 mps 736 mmHg 46%
    17:00 +34°C° 0.1 mm 3 mps 736 mmHg 49%
    18:00 +33°C° 0.1 mm 3 mps 736 mmHg 52%
    19:00 +30°C° 0 mm 3 mps 737 mmHg 58%
    20:00 +29°C° 0 mm 3 mps 737 mmHg 63%
    21:00 +27°C° 0 mm 2 mps 738 mmHg 68%
    22:00 +27°C° 0 mm 3 mps 738 mmHg 66%
    23:00 +27°C° 0 mm 3 mps 738 mmHg 64%

    22 July, Sunday

    Time Temperature Precipitation Wind Pressure Humidity
    00:00 +27°C° 0 mm 3 mps 738 mmHg 62%
    01:00 +27°C° 0 mm 3 mps 738 mmHg 62%
    02:00 +27°C° 0 mm 3 mps 738 mmHg 61%
    03:00 +27°C° 0 mm 3 mps 738 mmHg 61%
    04:00 +27°C° 0 mm 3 mps 738 mmHg 59%
    05:00 +28°C° 0 mm 3 mps 738 mmHg 57%
    06:00 +29°C° 0 mm 2 mps 738 mmHg 55%
    07:00 +31°C° 0 mm 3 mps 738 mmHg 51%
    08:00 +33°C° 0 mm 3 mps 738 mmHg 47%
    09:00 +35°C° 0 mm 3 mps 738 mmHg 43%
    10:00 +35°C° 0 mm 4 mps 738 mmHg 42%
    11:00 +36°C° 0 mm 4 mps 738 mmHg 41%
    12:00 +36°C° 0 mm 5 mps 738 mmHg 40%
    13:00 +36°C° 0.1 mm 4 mps 737 mmHg 41%
    14:00 +36°C° 0.1 mm 4 mps 737 mmHg 42%
    15:00 +36°C° 0.1 mm 4 mps 737 mmHg 43%
    16:00 +35°C° 0 mm 3 mps 737 mmHg 47%
    17:00 +34°C° 0 mm 3 mps 737 mmHg 50%
    18:00 +32°C° 0 mm 2 mps 737 mmHg 54%
    19:00 +30°C° 0 mm 2 mps 737 mmHg 59%
    20:00 +28°C° 0 mm 2 mps 737 mmHg 65%
    21:00 +27°C° 0 mm 2 mps 737 mmHg 70%
    22:00 +27°C° 0 mm 2 mps 737 mmHg 68%
    23:00 +27°C° 0 mm 2 mps 737 mmHg 65%

    23 July, Monday

    Time Temperature Precipitation Wind Pressure Humidity
    00:00 +26°C° 0 mm 2 mps 737 mmHg 62%
    01:00 +26°C° 0 mm 2 mps 737 mmHg 61%
    02:00 +26°C° 0 mm 2 mps 737 mmHg 59%
    03:00 +26°C° 0 mm 2 mps 736 mmHg 58%
    04:00 +27°C° 0 mm 2 mps 737 mmHg 56%
    05:00 +28°C° 0 mm 2 mps 737 mmHg 54%
    06:00 +29°C° 0 mm 1 mps 737 mmHg 51%
    07:00 +30°C° 0 mm 2 mps 737 mmHg 48%
    08:00 +32°C° 0 mm 2 mps 737 mmHg 44%
    09:00 +35°C° 0 mm 2 mps 737 mmHg 40%
    10:00 +35°C° 0 mm 3 mps 737 mmHg 39%
    11:00 +36°C° 0 mm 4 mps 736 mmHg 38%
    12:00 +37°C° 0 mm 5 mps 736 mmHg 37%
    13:00 +36°C° 0 mm 4 mps 736 mmHg 38%
    14:00 +36°C° 0 mm 4 mps 735 mmHg 39%
    15:00 +36°C° 0 mm 4 mps 735 mmHg 39%
    16:00 +35°C° 0 mm 4 mps 735 mmHg 43%
    17:00 +34°C° 0 mm 3 mps 735 mmHg 46%
    18:00 +32°C° 0 mm 2 mps 735 mmHg 50%
    19:00 +30°C° 0 mm 2 mps 735 mmHg 55%
    20:00 +28°C° 0 mm 2 mps 736 mmHg 60%
    21:00 +27°C° 0 mm 1 mps 736 mmHg 65%
    22:00 +27°C° 0 mm 1 mps 736 mmHg 62%
    23:00 +27°C° 0 mm 2 mps 736 mmHg 59%

    24 July, Tuesday

    Time Temperature Precipitation Wind Pressure Humidity
    00:00 +27°C° 0 mm 2 mps 736 mmHg 56%
    01:00 +27°C° 0 mm 2 mps 736 mmHg 57%
    02:00 +27°C° 0 mm 2 mps 736 mmHg 57%
    03:00 +26°C° 0 mm 2 mps 736 mmHg 58%
    04:00 +27°C° 0 mm 2 mps 736 mmHg 56%
    05:00 +28°C° 0 mm 2 mps 736 mmHg 54%
    06:00 +29°C° 0 mm 2 mps 737 mmHg 52%
    07:00 +30°C° 0 mm 3 mps 737 mmHg 48%
    08:00 +33°C° 0 mm 3 mps 737 mmHg 44%
    09:00 +35°C° 0 mm 4 mps 737 mmHg 40%
    10:00 +35°C° 0 mm 4 mps 737 mmHg 40%
    11:00 +36°C° 0 mm 5 mps 737 mmHg 39%
    12:00 +37°C° 0 mm 5 mps 737 mmHg 39%
    13:00 +36°C° 0 mm 5 mps 736 mmHg 40%
    14:00 +36°C° 0 mm 5 mps 736 mmHg 42%
    15:00 +36°C° 0 mm 4 mps 736 mmHg 43%
    16:00 +35°C° 0 mm 4 mps 737 mmHg 47%
    17:00 +34°C° 0 mm 3 mps 737 mmHg 50%
    18:00 +32°C° 0 mm 2 mps 737 mmHg 54%
    19:00 +30°C° 0 mm 2 mps 737 mmHg 58%
    20:00 +29°C° 0 mm 2 mps 737 mmHg 61%
    21:00 +27°C° 0 mm 2 mps 738 mmHg 65%
    22:00 +27°C° 0 mm 2 mps 738 mmHg 62%
    23:00 +27°C° 0 mm 2 mps 738 mmHg 59%
    Show more